Location: Peebles
(55.6412°N, 3.1714°W)
Time: 15:19:10
(UTC+01:00)

Sich 1 Rocket - Pass Details

Date: 26 September 2021
Orbit: 615 x 653 km, 82.5° (Epoch: 17 October)

Event Time Altitude Azimuth Distance (km) Brightness Sun altitude
Rises 20:30:23 0° 170° (S) 2,952 6.8 -13.3°
Reaches altitude 10° 20:32:42 10° 164° (SSE) 2,041 5.9 -13.6°
Maximum altitude 20:37:00 44° 93° (E) 897 3.9 -14.2°
Drops below altitude 10° 20:41:16 10° 22° (NNE) 2,035 6.2 -14.8°
Sets 20:43:35 0° 16° (NNE) 2,941 7.1 -15.1°
